Home > Time Zones > World Clock > Weather > U.S.A. > Yuma > Past weeks

Flag Weather past 2 weeks in Yuma, Arizona, U.S.A.

Now
57 °F

Clear.


Feels Like: 56 °F
Forecast: 58 / 82 °F
Wind: 6 mph from Northeast

Location: Yuma Marine Corps Air Station

Current Time: Nov 28, 2014 at 5:21:12 AM

Latest Report: Nov 28, 2014 at 4:57 AM


Visibility: 10 mi

Pressure: 29.98 "Hg

Humidity: 31%

Dew point: 26 °F

Location of YumaLocation

Historic Weather in Yuma — Graph

°F

Yuma temperature yesterday

Maximum temperature yesterday: 85 °F (at 2:57 PM)
Minimum temperature yesterday: 55 °F (at 3:57 AM)
Average temperature yesterday: 68 °F

Past Weeks' High & Low Weather Summary

 TemperatureHumidityPressure
High85 °F (Nov 27, 2:57 PM)81% (Nov 13, 5:57 AM)30.45 "Hg (Nov 13, 5:57 AM)
Low49 °F (Nov 22, 6:57 AM)6% (Nov 23, 1:57 PM)29.85 "Hg (Nov 15, 4:57 PM)
Average64 °F30%30.07 "Hg
* Reported Nov 13 3:57 AM — Nov 28 3:57 AM, Yuma, Weather by CustomWeather, © 2014

Note: Actual official high and low records may vary slightly from our data, if they occured in-between our weather recording intervals... More about our weather records

Advertising

Yuma weather history for previous 24 hours

 ConditionsComfort  
Time TempWeatherWind HumidityBarometerVisibility
3:57 AM
Nov 28
58 °FClear.6 mph30%29.98 "Hg10 mi
2:57 AM59 °FClear.5 mph27%29.99 "Hg10 mi
1:57 AM60 °FClear.6 mph26%30.00 "Hg10 mi
12:57 AM59 °FClear.5 mph32%30.00 "Hg10 mi
11:57 PM
Nov 27
59 °FPassing clouds.No wind27%30.02 "Hg10 mi
10:57 PM62 °FPassing clouds.5 mph25%30.03 "Hg10 mi
9:57 PM63 °FPassing clouds.3 mph21%30.03 "Hg10 mi
8:57 PM67 °FPassing clouds.No wind16%30.03 "Hg10 mi
7:57 PM70 °FPassing clouds.7 mph15%30.03 "Hg10 mi
6:57 PM72 °FPassing clouds.7 mph15%30.02 "Hg10 mi
5:57 PM75 °FPassing clouds.7 mph15%30.02 "Hg10 mi
4:57 PM82 °FScattered clouds.6 mph10%30.02 "Hg10 mi
3:57 PM85 °FPassing clouds.9 mph9%30.03 "Hg10 mi
2:57 PM85 °FPassing clouds.7 mph9%30.04 "Hg10 mi
1:57 PM84 °FPassing clouds.8 mph10%30.06 "Hg10 mi
12:57 PM80 °FPassing clouds.9 mph12%30.09 "Hg10 mi
11:57 AM78 °FPassing clouds.12 mph13%30.13 "Hg10 mi
10:57 AM72 °FPassing clouds.10 mph16%30.16 "Hg10 mi
9:57 AM68 °FSunny.10 mph16%30.16 "Hg10 mi
8:57 AM63 °FSunny.10 mph19%30.17 "Hg10 mi
7:57 AM59 °FSunny.10 mph20%30.16 "Hg10 mi
6:57 AM57 °FClear.8 mph24%30.15 "Hg10 mi
5:57 AM57 °FClear.9 mph26%30.13 "Hg10 mi
Weather by CustomWeather, © 2014

See weather overviewHow to use our weather pages